{"data":{"norad_id":59214,"epoch":"2026-05-25T01:09:24.936192Z","epoch_age_seconds":71029,"freshness":"FRESH","line1":"1 59214U 24046P   26145.04820528  .00000982  00000+0  40207-4 0  9999","line2":"2 59214  53.1601 159.7202 0001225  75.4067 284.7071 15.34392272124749","mean_motion":15.34392272,"eccentricity":0.0001225,"inclination_deg":53.1601,"raan_deg":159.7202,"arg_perigee_deg":75.4067,"mean_anomaly_deg":284.7071,"bstar":4.0207e-5,"rev_number":12474,"period_min":93.848230747606,"perigee_km":461.88820380494,"apogee_km":463.56421529128,"semimajor_km":6840.8632095481,"source":"CELESTRAK","updated_at":"2026-05-25T13:38:18.866713Z"}}